TimeEST,TemperatureF,Dew PointF,Humidity,Sea Level PressureIn,VisibilityMPH,Wind Direction,Wind SpeedMPH,Gust SpeedMPH,PrecipitationIn,Events,Conditions,WindDirDegrees,DateUTC
12:15 AM,51.8,51.8,100,30.32,10.0,North,8.1,-,N/A,,Mostly Cloudy,350,2012-11-19 05:15:00
12:35 AM,51.8,50.0,94,30.31,10.0,NNW,6.9,-,N/A,,Mostly Cloudy,340,2012-11-19 05:35:00
12:55 AM,51.8,50.0,94,30.30,10.0,NNW,10.4,-,N/A,,Mostly Cloudy,340,2012-11-19 05:55:00
1:15 AM,51.8,50.0,94,30.30,10.0,North,8.1,-,N/A,,Mostly Cloudy,350,2012-11-19 06:15:00
1:35 AM,51.8,50.0,94,30.30,10.0,North,6.9,-,N/A,,Mostly Cloudy,350,2012-11-19 06:35:00
1:55 AM,51.8,50.0,94,30.29,10.0,North,6.9,-,N/A,,Overcast,10,2012-11-19 06:55:00
2:15 AM,51.8,48.2,88,30.28,10.0,North,6.9,-,N/A,,Mostly Cloudy,10,2012-11-19 07:15:00
2:35 AM,51.8,48.2,88,30.28,10.0,North,6.9,-,N/A,,Overcast,10,2012-11-19 07:35:00
2:55 AM,53.6,46.4,77,30.28,10.0,North,8.1,-,N/A,,Overcast,360,2012-11-19 07:55:00
3:15 AM,53.6,46.4,77,30.27,10.0,North,8.1,-,N/A,,Overcast,360,2012-11-19 08:15:00
3:35 AM,53.6,46.4,77,30.27,10.0,North,5.8,-,N/A,,Overcast,10,2012-11-19 08:35:00
3:55 AM,53.6,46.4,77,30.27,10.0,North,8.1,-,N/A,,Overcast,360,2012-11-19 08:55:00
4:15 AM,53.6,46.4,77,30.27,10.0,North,8.1,-,N/A,,Overcast,10,2012-11-19 09:15:00
4:35 AM,53.6,46.4,77,30.26,10.0,North,6.9,-,N/A,,Overcast,10,2012-11-19 09:35:00
4:55 AM,53.6,46.4,77,30.26,10.0,North,5.8,-,N/A,,Overcast,10,2012-11-19 09:55:00
5:15 AM,53.6,46.4,77,30.25,10.0,North,6.9,-,N/A,,Overcast,10,2012-11-19 10:15:00
5:35 AM,53.6,46.4,77,30.26,10.0,North,6.9,-,N/A,,Overcast,350,2012-11-19 10:35:00
5:55 AM,53.6,46.4,77,30.26,10.0,North,5.8,9.2,N/A,,Overcast,350,2012-11-19 10:55:00
6:15 AM,53.6,46.4,77,30.27,10.0,North,6.9,-,N/A,,Overcast,10,2012-11-19 11:15:00
6:35 AM,53.6,46.4,77,30.27,10.0,North,10.4,17.3,N/A,,Overcast,360,2012-11-19 11:35:00
6:55 AM,53.6,46.4,77,30.27,10.0,North,11.5,18.4,N/A,,Overcast,10,2012-11-19 11:55:00
7:15 AM,53.6,44.6,72,30.27,10.0,North,11.5,17.3,N/A,,Overcast,10,2012-11-19 12:15:00
7:35 AM,53.6,46.4,77,30.28,10.0,North,10.4,-,N/A,,Overcast,360,2012-11-19 12:35:00
7:55 AM,53.6,46.4,77,30.28,10.0,North,6.9,-,N/A,,Overcast,10,2012-11-19 12:55:00
8:15 AM,53.6,46.4,77,30.28,10.0,North,9.2,18.4,N/A,,Overcast,360,2012-11-19 13:15:00
8:35 AM,53.6,46.4,77,30.28,10.0,North,8.1,-,N/A,,Overcast,360,2012-11-19 13:35:00
8:55 AM,53.6,46.4,77,30.28,10.0,North,5.8,-,N/A,,Mostly Cloudy,10,2012-11-19 13:55:00
9:15 AM,53.6,46.4,77,30.28,10.0,NNE,9.2,-,N/A,,Mostly Cloudy,20,2012-11-19 14:15:00
9:35 AM,55.4,46.4,72,30.28,10.0,North,9.2,-,N/A,,Mostly Cloudy,360,2012-11-19 14:35:00
10:15 AM,55.4,46.4,72,30.29,10.0,NNE,11.5,21.9,N/A,,Scattered Clouds,30,2012-11-19 15:15:00
10:35 AM,59.0,48.2,67,30.29,10.0,NNE,12.7,20.7,N/A,,Mostly Cloudy,20,2012-11-19 15:35:00
10:55 AM,59.0,48.2,67,30.29,10.0,NNE,8.1,-,N/A,,Scattered Clouds,20,2012-11-19 15:55:00
11:15 AM,60.8,48.2,63,30.29,10.0,NNE,9.2,-,N/A,,Clear,30,2012-11-19 16:15:00
11:35 AM,60.8,50.0,68,30.29,10.0,NE,6.9,-,N/A,,Clear,40,2012-11-19 16:35:00
12:15 PM,62.6,50.0,63,30.27,10.0,North,5.8,16.1,N/A,,Clear,10,2012-11-19 17:15:00
12:35 PM,62.6,50.0,63,30.26,10.0,North,9.2,16.1,N/A,,Clear,10,2012-11-19 17:35:00
12:55 PM,64.4,50.0,59,30.24,10.0,NNE,6.9,-,N/A,,Clear,30,2012-11-19 17:55:00
1:15 PM,64.4,50.0,59,30.23,10.0,NNE,6.9,18.4,N/A,,Clear,30,2012-11-19 18:15:00
1:35 PM,64.4,50.0,59,30.23,10.0,North,9.2,-,N/A,,Clear,10,2012-11-19 18:35:00
1:55 PM,66.2,51.8,60,30.22,10.0,NNE,6.9,-,N/A,,Scattered Clouds,20,2012-11-19 18:55:00
2:15 PM,66.2,51.8,60,30.22,10.0,North,8.1,17.3,N/A,,Scattered Clouds,10,2012-11-19 19:15:00
2:35 PM,66.2,51.8,60,30.21,10.0,North,4.6,-,N/A,,Scattered Clouds,360,2012-11-19 19:35:00
2:55 PM,66.2,51.8,60,30.20,10.0,NNE,9.2,17.3,N/A,,Scattered Clouds,20,2012-11-19 19:55:00
3:15 PM,68.0,51.8,56,30.20,10.0,NNE,11.5,16.1,N/A,,Scattered Clouds,30,2012-11-19 20:15:00
3:35 PM,68.0,51.8,56,30.20,10.0,North,10.4,-,N/A,,Scattered Clouds,360,2012-11-19 20:35:00
4:35 PM,66.2,51.8,60,30.19,10.0,North,5.8,-,N/A,,Clear,360,2012-11-19 21:35:00
4:55 PM,66.2,51.8,60,30.20,10.0,NNE,9.2,-,N/A,,Clear,20,2012-11-19 21:55:00
5:15 PM,64.4,51.8,64,30.19,10.0,North,8.1,-,N/A,,Clear,10,2012-11-19 22:15:00
5:35 PM,64.4,51.8,64,30.20,10.0,NNE,8.1,-,N/A,,Clear,20,2012-11-19 22:35:00
5:55 PM,62.6,51.8,68,30.20,10.0,North,3.5,-,N/A,,Clear,10,2012-11-19 22:55:00
6:15 PM,60.8,51.8,72,30.20,10.0,North,4.6,-,N/A,,Clear,10,2012-11-19 23:15:00
6:35 PM,60.8,51.8,72,30.20,10.0,NNE,4.6,-,N/A,,Clear,20,2012-11-19 23:35:00
6:55 PM,60.8,51.8,72,30.21,10.0,NNE,3.5,-,N/A,,Clear,20,2012-11-19 23:55:00
7:15 PM,59.0,50.0,72,30.21,10.0,North,3.5,-,N/A,,Clear,10,2012-11-20 00:15:00
7:35 PM,59.0,50.0,72,30.21,10.0,North,4.6,-,N/A,,Clear,360,2012-11-20 00:35:00
7:55 PM,59.0,50.0,72,30.20,10.0,NNE,4.6,-,N/A,,Clear,20,2012-11-20 00:55:00
8:15 PM,55.4,50.0,82,30.20,10.0,North,4.6,-,N/A,,Clear,360,2012-11-20 01:15:00
8:35 PM,57.2,50.0,77,30.20,10.0,NNE,3.5,-,N/A,,Clear,20,2012-11-20 01:35:00
8:55 PM,57.2,50.0,77,30.19,10.0,North,3.5,-,N/A,,Clear,10,2012-11-20 01:55:00
9:15 PM,55.4,50.0,82,30.19,10.0,NNE,4.6,-,N/A,,Clear,20,2012-11-20 02:15:00
9:35 PM,55.4,50.0,82,30.20,10.0,North,4.6,-,N/A,,Clear,360,2012-11-20 02:35:00
9:55 PM,53.6,50.0,88,30.20,10.0,North,4.6,-,N/A,,Clear,10,2012-11-20 02:55:00
10:15 PM,53.6,50.0,88,30.20,10.0,NNE,5.8,-,N/A,,Clear,20,2012-11-20 03:15:00
10:35 PM,53.6,48.2,82,30.20,10.0,North,4.6,-,N/A,,Clear,360,2012-11-20 03:35:00
10:55 PM,53.6,48.2,82,30.20,10.0,North,4.6,-,N/A,,Clear,10,2012-11-20 03:55:00
11:15 PM,53.6,48.2,82,30.19,10.0,North,5.8,-,N/A,,Clear,10,2012-11-20 04:15:00
11:35 PM,51.8,48.2,88,30.19,10.0,North,5.8,-,N/A,,Clear,360,2012-11-20 04:35:00
11:55 PM,51.8,46.4,82,30.20,10.0,North,4.6,-,N/A,,Clear,360,2012-11-20 04:55:00